QPF
0.16 0.13 0.11 0.08 0.05 0.04 0.04 0.05 0.05 0.06 0.06 0.06 0.05 0.05 0.06 0.06 0.06 0.06 0.06 0.07 0.07 0.08 0.09 0.08 0.08 0.07 0.06 0.07 0.08 0.07 0.07 0.05 0.05 0.04 0.02 0.02 0.01 0.01 0.01 0.02 0.05 0.04 0.01
0.08 0.09 0.22 0.22 0.08 0.03 0.04 0.04 0.05 0.07 0.07 0.05 0.06 0.05 0.04 0.06 0.07 0.07 0.06 0.06 0.07 0.09 0.08 0.07 0.08 0.06 0.06 0.06 0.08 0.09 0.06 0.05 0.05 0.04 0.02 0.01 0.01 0.02 0.03 0.03 0.05 0.05 0.02
0.06 0.07 0.11 0.27 0.10 0.03 0.04 0.05 0.06 0.08 0.07 0.06 0.06 0.05 0.05 0.05 0.05 0.05 0.05 0.07 0.08 0.07 0.07 0.06 0.06 0.04 0.04 0.04 0.04 0.05 0.06 0.04 0.04 0.05 0.05 0.03 0.01 0.02 0.03 0.03 0.02 0.02 0.04
0.06 0.09 0.11 0.16 0.07 0.04 0.04 0.06 0.08 0.12 0.09 0.09 0.08 0.06 0.07 0.08 0.08 0.05 0.05 0.07 0.09 0.07 0.07 0.07 0.05 0.02 0.03 0.03 0.04 0.04 0.05 0.07 0.07 0.09 0.11 0.05 0.02 0.02 0.02 0.02 0.02 0.02 0.04
0.08 0.09 0.08 0.06 0.04 0.04 0.04 0.05 0.08 0.17 0.13 0.12 0.10 0.09 0.07 0.09 0.10 0.10 0.09 0.08 0.08 0.08 0.07 0.08 0.05 0.02 0.03 0.03 0.04 0.05 0.06 0.07 0.10 0.11 0.08 0.05 0.04 0.03 0.02 0.02 0.02 0.02 0.03
0.09 0.08 0.05 0.05 0.06 0.05 0.05 0.06 0.08 0.13 0.13 0.13 0.12 0.11 0.08 0.08 0.10 0.13 0.15 0.12 0.10 0.09 0.08 0.08 0.07 0.04 0.04 0.05 0.04 0.04 0.05 0.06 0.10 0.09 0.05 0.04 0.03 0.03 0.02 0.02 0.02 0.03 0.02
0.09 0.10 0.08 0.06 0.08 0.08 0.09 0.10 0.11 0.10 0.11 0.12 0.12 0.11 0.09 0.09 0.09 0.13 0.16 0.14 0.12 0.11 0.10 0.09 0.07 0.05 0.04 0.05 0.05 0.04 0.05 0.06 0.08 0.06 0.04 0.04 0.04 0.03 0.02 0.02 0.01 0.02 0.02
0.05 0.08 0.10 0.08 0.08 0.08 0.10 0.12 0.13 0.11 0.11 0.11 0.11 0.10 0.10 0.09 0.09 0.10 0.14 0.15 0.12 0.11 0.09 0.08 0.07 0.05 0.04 0.04 0.05 0.05 0.05 0.05 0.05 0.03 0.04 0.03 0.03 0.02 0.02 0.02 0.01 0.01 0.01
0.03 0.05 0.08 0.09 0.09 0.08 0.10 0.12 0.14 0.14 0.15 0.13 0.12 0.11 0.09 0.07 0.07 0.08 0.13 0.14 0.13 0.11 0.08 0.06 0.05 0.06 0.05 0.05 0.05 0.05 0.03 0.04 0.04 0.03 0.04 0.03 0.02 0.02 0.03 0.02 0.01 0.01 0.01
0.03 0.03 0.04 0.07 0.08 0.09 0.09 0.11 0.12 0.13 0.15 0.14 0.13 0.12 0.09 0.07 0.05 0.05 0.07 0.12 0.11 0.10 0.08 0.06 0.05 0.06 0.08 0.08 0.07 0.06 0.04 0.04 0.03 0.03 0.04 0.03 0.02 0.01 0.01 0.01 0.01 0.01 0.01
0.04 0.05 0.05 0.05 0.05 0.06 0.08 0.11 0.14 0.12 0.13 0.13 0.14 0.10 0.09 0.11 0.09 0.08 0.05 0.07 0.08 0.10 0.09 0.07 0.06 0.06 0.11 0.10 0.07 0.06 0.06 0.04 0.02 0.03 0.02 0.02 0.02 0.02 0.02 0.02 0.01 0.01 0.01
0.04 0.04 0.05 0.07 0.08 0.07 0.07 0.11 0.16 0.19 0.18 0.14 0.15 0.11 0.09 0.11 0.13 0.09 0.05 0.06 0.07 0.10 0.11 0.11 0.11 0.10 0.11 0.11 0.10 0.09 0.07 0.05 0.04 0.04 0.02 0.02 0.02 0.03 0.02 0.02 0.01 0.01 0.01
0.04 0.02 0.03 0.05 0.07 0.08 0.08 0.10 0.19 0.27 0.22 0.16 0.15 0.13 0.11 0.10 0.11 0.10 0.10 0.08 0.10 0.12 0.15 0.17 0.15 0.12 0.10 0.11 0.10 0.09 0.09 0.06 0.04 0.04 0.03 0.02 0.02 0.02 0.02 0.03 0.02 0.02 0.02
0.04 0.03 0.03 0.04 0.04 0.04 0.04 0.07 0.12 0.18 0.15 0.12 0.12 0.12 0.10 0.12 0.12 0.11 0.11 0.10 0.11 0.13 0.18 0.21 0.18 0.12 0.11 0.09 0.06 0.07 0.08 0.07 0.05 0.04 0.05 0.02 0.02 0.01 0.02 0.04 0.03 0.04 0.05
0.03 0.02 0.04 0.03 0.03 0.04 0.05 0.05 0.05 0.08 0.09 0.08 0.09 0.08 0.09 0.11 0.11 0.11 0.10 0.11 0.11 0.13 0.15 0.18 0.17 0.12 0.12 0.10 0.07 0.06 0.07 0.06 0.05 0.06 0.07 0.04 0.02 0.02 0.02 0.04 0.05 0.05 0.06
0.02 0.02 0.03 0.02 0.03 0.03 0.04 0.03 0.05 0.06 0.06 0.06 0.06 0.06 0.08 0.08 0.07 0.07 0.08 0.09 0.08 0.12 0.14 0.15 0.17 0.16 0.13 0.11 0.09 0.07 0.08 0.06 0.05 0.05 0.05 0.05 0.04 0.02 0.02 0.04 0.05 0.05 0.07
0.02 0.01 0.01 0.01 0.02 0.02 0.02 0.02 0.04 0.04 0.04 0.05 0.06 0.05 0.06 0.07 0.06 0.06 0.06 0.06 0.06 0.06 0.08 0.12 0.14 0.16 0.15 0.11 0.09 0.07 0.07 0.07 0.07 0.06 0.06 0.08 0.06 0.05 0.05 0.04 0.03 0.05 0.07
0.03 0.02 0.02 0.01 0.01 0.01 0.01 0.01 0.03 0.03 0.03 0.04 0.05 0.06 0.05 0.06 0.06 0.06 0.06 0.06 0.07 0.05 0.05 0.08 0.10 0.14 0.13 0.10 0.09 0.08 0.08 0.08 0.07 0.07 0.07 0.08 0.10 0.09 0.07 0.05 0.04 0.04 0.05
0.03 0.02 0.01 0.01 0.01 0.01 0.01 0.02 0.02 0.03 0.03 0.03 0.04 0.07 0.07 0.06 0.07 0.08 0.08 0.09 0.09 0.07 0.07 0.07 0.10 0.14 0.16 0.15 0.14 0.14 0.13 0.10 0.08 0.07 0.08 0.07 0.08 0.10 0.10 0.07 0.04 0.04 0.05
0.03 0.02 0.01 0.01 0.02 0.02 0.02 0.02 0.03 0.02 0.03 0.03 0.04 0.06 0.08 0.10 0.10 0.12 0.13 0.11 0.09 0.09 0.10 0.11 0.12 0.15 0.18 0.16 0.12 0.16 0.16 0.13 0.11 0.08 0.08 0.06 0.05 0.06 0.07 0.06 0.07 0.07 0.11
0.02 0.02 0.02 0.02 0.02 0.03 0.03 0.03 0.03 0.03 0.03 0.03 0.05 0.06 0.06 0.08 0.09 0.10 0.12 0.15 0.13 0.12 0.14 0.15 0.15 0.15 0.16 0.14 0.15 0.14 0.14 0.14 0.14 0.12 0.08 0.07 0.06 0.06 0.07 0.09 0.09 0.12 0.16
0.01 0.01 0.02 0.02 0.02 0.02 0.03 0.03 0.03 0.03 0.02 0.02 0.03 0.06 0.06 0.06 0.05 0.06 0.09 0.10 0.13 0.14 0.14 0.15 0.14 0.13 0.15 0.14 0.13 0.13 0.14 0.15 0.12 0.10 0.09 0.10 0.10 0.10 0.10 0.10 0.11 0.11 0.10
0.01 0.02 0.02 0.02 0.02 0.02 0.03 0.03 0.04 0.03 0.03 0.03 0.04 0.05 0.06 0.06 0.05 0.05 0.06 0.11 0.18 0.17 0.14 0.12 0.10 0.10 0.12 0.11 0.12 0.11 0.12 0.13 0.10 0.07 0.07 0.09 0.09 0.08 0.09 0.09 0.08 0.08 0.08
0.02 0.02 0.02 0.02 0.02 0.02 0.02 0.03 0.04 0.04 0.04 0.04 0.04 0.04 0.05 0.04 0.04 0.05 0.07 0.13 0.16 0.18 0.18 0.14 0.13 0.11 0.11 0.10 0.09 0.10 0.08 0.08 0.08 0.08 0.08 0.06 0.06 0.06 0.07 0.05 0.05 0.08 0.06
0.02 0.02 0.01 0.01 0.01 0.01 0.02 0.02 0.03 0.04 0.04 0.04 0.04 0.04 0.04 0.03 0.03 0.05 0.10 0.14 0.12 0.12 0.12 0.10 0.11 0.10 0.10 0.10 0.10 0.11 0.10 0.09 0.09 0.09 0.10 0.08 0.07 0.06 0.04 0.03 0.03 0.05 0.05
0.02 0.01 0.01 0.02 0.02 0.02 0.01 0.01 0.02 0.03 0.03 0.04 0.04 0.04 0.02 0.01 0.02 0.03 0.06 0.08 0.08 0.07 0.08 0.09 0.10 0.10 0.11 0.12 0.12 0.10 0.10 0.10 0.10 0.10 0.09 0.09 0.08 0.05 0.03 0.03 0.02 0.02 0.03
MSLP
1006.38 1006.29 1006.44 1006.83 1007.40 1008.07 1008.73 1009.30 1009.74 1010.03 1010.20 1010.33 1010.46 1010.67 1010.97 1011.36 1011.81 1012.28 1012.70 1013.05 1013.32 1013.52 1013.66 1013.79 1013.93 1014.08 1014.25 1014.42 1014.57 1014.69 1014.77 1014.82 1014.85 1014.90 1014.97 1015.09 1015.25 1015.44 1015.65 1015.85 1016.03 1016.19 1016.32
1006.29 1006.30 1006.55 1007.04 1007.68 1008.38 1009.05 1009.62 1010.03 1010.31 1010.49 1010.65 1010.83 1011.10 1011.46 1011.89 1012.35 1012.81 1013.20 1013.51 1013.74 1013.89 1014.01 1014.12 1014.23 1014.37 1014.52 1014.67 1014.79 1014.88 1014.93 1014.96 1014.98 1015.03 1015.11 1015.24 1015.42 1015.63 1015.85 1016.07 1016.26 1016.43 1016.56
1006.12 1006.25 1006.62 1007.21 1007.93 1008.69 1009.39 1009.96 1010.38 1010.67 1010.88 1011.06 1011.29 1011.58 1011.95 1012.38 1012.82 1013.22 1013.56 1013.82 1014.01 1014.14 1014.25 1014.36 1014.48 1014.63 1014.77 1014.90 1015.00 1015.06 1015.08 1015.09 1015.11 1015.15 1015.25 1015.39 1015.58 1015.81 1016.04 1016.26 1016.46 1016.62 1016.76
1005.92 1006.16 1006.66 1007.36 1008.17 1008.99 1009.72 1010.32 1010.77 1011.09 1011.33 1011.55 1011.80 1012.10 1012.45 1012.83 1013.20 1013.54 1013.80 1014.00 1014.16 1014.28 1014.41 1014.55 1014.71 1014.87 1015.02 1015.13 1015.20 1015.22 1015.21 1015.20 1015.21 1015.26 1015.37 1015.53 1015.73 1015.96 1016.19 1016.41 1016.61 1016.78 1016.92
1005.73 1006.09 1006.70 1007.50 1008.39 1009.26 1010.03 1010.67 1011.15 1011.51 1011.80 1012.06 1012.32 1012.62 1012.94 1013.25 1013.54 1013.78 1013.97 1014.12 1014.25 1014.39 1014.56 1014.75 1014.94 1015.13 1015.27 1015.36 1015.39 1015.36 1015.31 1015.27 1015.27 1015.33 1015.45 1015.63 1015.84 1016.08 1016.30 1016.52 1016.71 1016.88 1017.03
1005.63 1006.09 1006.79 1007.66 1008.59 1009.49 1010.30 1010.96 1011.48 1011.89 1012.23 1012.53 1012.82 1013.11 1013.39 1013.64 1013.84 1013.99 1014.11 1014.23 1014.36 1014.53 1014.74 1014.99 1015.22 1015.43 1015.56 1015.60 1015.57 1015.48 1015.38 1015.30 1015.28 1015.34 1015.47 1015.67 1015.90 1016.13 1016.36 1016.56 1016.74 1016.91 1017.08
1005.65 1006.18 1006.94 1007.84 1008.78 1009.68 1010.48 1011.16 1011.71 1012.17 1012.56 1012.92 1013.25 1013.56 1013.81 1014.00 1014.13 1014.22 1014.29 1014.38 1014.52 1014.73 1014.99 1015.28 1015.55 1015.75 1015.85 1015.84 1015.72 1015.56 1015.38 1015.26 1015.21 1015.27 1015.43 1015.64 1015.89 1016.13 1016.34 1016.53 1016.70 1016.86 1017.04
1005.82 1006.39 1007.16 1008.05 1008.96 1009.82 1010.59 1011.25 1011.82 1012.32 1012.78 1013.21 1013.60 1013.93 1014.18 1014.35 1014.44 1014.48 1014.52 1014.60 1014.75 1014.99 1015.29 1015.62 1015.90 1016.08 1016.13 1016.04 1015.84 1015.58 1015.33 1015.15 1015.08 1015.14 1015.31 1015.54 1015.80 1016.05 1016.26 1016.43 1016.58 1016.73 1016.91
1006.12 1006.70 1007.45 1008.28 1009.12 1009.91 1010.61 1011.24 1011.82 1012.37 1012.89 1013.40 1013.86 1014.25 1014.53 1014.70 1014.77 1014.79 1014.81 1014.88 1015.04 1015.30 1015.62 1015.95 1016.22 1016.37 1016.35 1016.18 1015.89 1015.54 1015.21 1014.98 1014.89 1014.95 1015.13 1015.39 1015.67 1015.92 1016.13 1016.28 1016.40 1016.53 1016.69
1006.52 1007.09 1007.79 1008.54 1009.28 1009.97 1010.59 1011.18 1011.76 1012.34 1012.94 1013.53 1014.07 1014.53 1014.85 1015.05 1015.13 1015.14 1015.14 1015.20 1015.35 1015.61 1015.92 1016.24 1016.48 1016.58 1016.50 1016.25 1015.87 1015.45 1015.06 1014.79 1014.67 1014.73 1014.92 1015.19 1015.49 1015.75 1015.95 1016.09 1016.19 1016.29 1016.42
1006.99 1007.53 1008.16 1008.82 1009.45 1010.03 1010.58 1011.12 1011.69 1012.31 1012.97 1013.64 1014.27 1014.79 1015.18 1015.40 1015.49 1015.50 1015.49 1015.52 1015.65 1015.87 1016.16 1016.43 1016.63 1016.68 1016.54 1016.23 1015.80 1015.32 1014.89 1014.58 1014.45 1014.50 1014.70 1014.98 1015.28 1015.55 1015.75 1015.88 1015.96 1016.03 1016.12
1007.49 1008.00 1008.57 1009.13 1009.66 1010.15 1010.63 1011.13 1011.69 1012.33 1013.04 1013.78 1014.48 1015.07 1015.50 1015.76 1015.86 1015.85 1015.82 1015.82 1015.90 1016.07 1016.30 1016.52 1016.67 1016.67 1016.49 1016.15 1015.69 1015.18 1014.73 1014.40 1014.25 1014.28 1014.47 1014.74 1015.05 1015.32 1015.52 1015.65 1015.71 1015.76 1015.82
1008.01 1008.49 1009.00 1009.49 1009.94 1010.36 1010.78 1011.25 1011.80 1012.46 1013.20 1013.98 1014.72 1015.35 1015.81 1016.09 1016.19 1016.17 1016.10 1016.06 1016.08 1016.18 1016.34 1016.50 1016.60 1016.57 1016.37 1016.02 1015.55 1015.05 1014.59 1014.25 1014.07 1014.07 1014.23 1014.48 1014.77 1015.04 1015.25 1015.38 1015.45 1015.49 1015.54
1008.54 1009.00 1009.46 1009.90 1010.30 1010.68 1011.07 1011.52 1012.06 1012.72 1013.46 1014.24 1014.99 1015.62 1016.09 1016.37 1016.46 1016.43 1016.33 1016.23 1016.19 1016.22 1016.31 1016.41 1016.46 1016.40 1016.20 1015.86 1015.42 1014.94 1014.49 1014.13 1013.92 1013.88 1013.98 1014.18 1014.43 1014.69 1014.90 1015.06 1015.16 1015.21 1015.25
1009.07 1009.51 1009.95 1010.36 1010.74 1011.10 1011.48 1011.92 1012.45 1013.08 1013.80 1014.54 1015.25 1015.85 1016.30 1016.56 1016.65 1016.60 1016.47 1016.34 1016.24 1016.21 1016.23 1016.27 1016.28 1016.21 1016.02 1015.72 1015.32 1014.86 1014.42 1014.05 1013.79 1013.68 1013.70 1013.83 1014.03 1014.25 1014.47 1014.66 1014.80 1014.89 1014.96
1009.60 1010.02 1010.45 1010.85 1011.24 1011.61 1012.00 1012.43 1012.94 1013.53 1014.17 1014.84 1015.47 1016.00 1016.40 1016.63 1016.71 1016.66 1016.53 1016.38 1016.25 1016.18 1016.15 1016.14 1016.12 1016.04 1015.87 1015.60 1015.25 1014.83 1014.40 1014.00 1013.69 1013.49 1013.40 1013.43 1013.55 1013.74 1013.96 1014.17 1014.37 1014.52 1014.63
1010.11 1010.51 1010.92 1011.34 1011.74 1012.14 1012.55 1012.99 1013.46 1013.98 1014.53 1015.08 1015.60 1016.04 1016.37 1016.57 1016.64 1016.61 1016.50 1016.37 1016.24 1016.15 1016.08 1016.05 1016.00 1015.92 1015.77 1015.54 1015.23 1014.84 1014.43 1014.01 1013.63 1013.33 1013.13 1013.04 1013.07 1013.19 1013.39 1013.63 1013.88 1014.11 1014.28
1010.58 1010.94 1011.34 1011.77 1012.20 1012.64 1013.07 1013.51 1013.94 1014.38 1014.82 1015.23 1015.62 1015.95 1016.20 1016.37 1016.45 1016.45 1016.40 1016.31 1016.22 1016.13 1016.06 1016.00 1015.94 1015.86 1015.73 1015.53 1015.26 1014.92 1014.51 1014.08 1013.65 1013.25 1012.93 1012.72 1012.64 1012.68 1012.84 1013.09 1013.38 1013.67 1013.92
1010.97 1011.29 1011.67 1012.10 1012.56 1013.03 1013.50 1013.93 1014.33 1014.69 1015.01 1015.29 1015.53 1015.74 1015.92 1016.05 1016.15 1016.21 1016.23 1016.21 1016.18 1016.13 1016.07 1016.01 1015.94 1015.85 1015.74 1015.58 1015.35 1015.05 1014.67 1014.24 1013.76 1013.29 1012.87 1012.54 1012.34 1012.29 1012.39 1012.62 1012.93 1013.27 1013.57
1011.23 1011.50 1011.85 1012.28 1012.77 1013.28 1013.78 1014.22 1014.59 1014.88 1015.09 1015.24 1015.35 1015.45 1015.55 1015.66 1015.78 1015.90 1016.00 1016.08 1016.12 1016.12 1016.09 1016.03 1015.96 1015.88 1015.78 1015.65 1015.47 1015.22 1014.89 1014.48 1014.00 1013.49 1012.98 1012.55 1012.24 1012.09 1012.11 1012.30 1012.60 1012.96 1013.30
1011.35 1011.57 1011.89 1012.31 1012.82 1013.36 1013.89 1014.35 1014.71 1014.95 1015.08 1015.12 1015.12 1015.12 1015.15 1015.24 1015.38 1015.55 1015.73 1015.90 1016.01 1016.07 1016.08 1016.04 1015.97 1015.89 1015.81 1015.72 1015.59 1015.41 1015.15 1014.80 1014.34 1013.82 1013.28 1012.78 1012.37 1012.12 1012.05 1012.16 1012.42 1012.76 1013.12
1011.32 1011.50 1011.78 1012.19 1012.70 1013.27 1013.84 1014.33 1014.70 1014.92 1014.99 1014.96 1014.87 1014.79 1014.76 1014.82 1014.96 1015.17 1015.42 1015.65 1015.84 1015.95 1015.99 1015.97 1015.92 1015.85 1015.79 1015.73 1015.67 1015.57 1015.39 1015.12 1014.74 1014.26 1013.71 1013.18 1012.71 1012.37 1012.20 1012.22 1012.40 1012.70 1013.04
1011.15 1011.30 1011.54 1011.94 1012.45 1013.04 1013.64 1014.16 1014.56 1014.79 1014.85 1014.78 1014.64 1014.50 1014.41 1014.43 1014.56 1014.78 1015.06 1015.34 1015.57 1015.73 1015.80 1015.80 1015.75 1015.70 1015.66 1015.64 1015.64 1015.63 1015.55 1015.38 1015.10 1014.69 1014.19 1013.66 1013.15 1012.75 1012.49 1012.42 1012.51 1012.74 1013.04
1010.87 1011.00 1011.23 1011.60 1012.10 1012.70 1013.32 1013.89 1014.33 1014.59 1014.67 1014.59 1014.42 1014.24 1014.10 1014.07 1014.16 1014.37 1014.64 1014.94 1015.19 1015.37 1015.47 1015.49 1015.45 1015.41 1015.39 1015.41 1015.47 1015.53 1015.55 1015.49 1015.32 1015.01 1014.59 1014.10 1013.60 1013.16 1012.84 1012.67 1012.68 1012.82 1013.06
1010.51 1010.66 1010.87 1011.21 1011.70 1012.29 1012.92 1013.52 1014.01 1014.32 1014.44 1014.38 1014.21 1014.00 1013.82 1013.73 1013.77 1013.92 1014.16 1014.44 1014.70 1014.89 1015.00 1015.03 1015.02 1014.99 1014.98 1015.03 1015.12 1015.24 1015.35 1015.39 1015.33 1015.13 1014.80 1014.38 1013.92 1013.48 1013.12 1012.89 1012.82 1012.88 1013.06
1010.12 1010.30 1010.51 1010.82 1011.27 1011.83 1012.46 1013.08 1013.61 1013.97 1014.14 1014.12 1013.97 1013.74 1013.52 1013.38 1013.35 1013.44 1013.63 1013.87 1014.11 1014.30 1014.43 1014.48 1014.47 1014.45 1014.46 1014.51 1014.62 1014.78 1014.93 1015.05 1015.08 1014.98 1014.76 1014.43 1014.03 1013.63 1013.27 1013.00 1012.87 1012.87 1012.98
Thickness
5813 5811 5808 5807 5806 5805 5804 5803 5802 5801 5799 5798 5797 5795 5793 5792 5790 5788 5786 5784 5783 5781 5780 5779 5778 5777 5776 5775 5774 5772 5771 5770 5770 5769 5768 5767 5766 5765 5763 5763 5762 5761 5759
5817 5812 5808 5807 5806 5804 5803 5802 5801 5800 5798 5797 5795 5794 5792 5790 5789 5787 5785 5783 5781 5780 5779 5778 5777 5776 5775 5774 5773 5771 5770 5769 5769 5768 5768 5766 5765 5764 5763 5762 5761 5759 5758
5818 5813 5810 5807 5805 5804 5803 5801 5800 5798 5797 5796 5794 5792 5790 5788 5787 5785 5784 5782 5781 5779 5778 5777 5776 5775 5774 5773 5772 5771 5770 5769 5769 5768 5768 5766 5765 5763 5762 5761 5760 5758 5757
5819 5815 5811 5807 5805 5803 5802 5800 5798 5797 5796 5794 5792 5790 5789 5787 5785 5784 5782 5781 5780 5779 5778 5777 5776 5775 5774 5773 5772 5771 5770 5769 5769 5768 5768 5767 5766 5763 5761 5760 5759 5757 5756
5821 5815 5809 5806 5804 5802 5801 5799 5797 5795 5794 5792 5791 5789 5787 5785 5784 5783 5781 5780 5779 5778 5777 5776 5775 5774 5773 5773 5772 5771 5770 5770 5769 5769 5769 5768 5766 5763 5761 5759 5758 5757 5756
5821 5815 5808 5806 5803 5802 5800 5798 5796 5794 5793 5791 5790 5788 5786 5785 5783 5782 5781 5779 5778 5777 5776 5775 5774 5774 5773 5772 5772 5772 5771 5770 5770 5770 5770 5768 5766 5763 5761 5760 5758 5757 5756
5820 5815 5809 5805 5803 5801 5799 5797 5795 5793 5792 5790 5789 5787 5785 5784 5783 5781 5780 5778 5777 5776 5775 5774 5774 5773 5772 5772 5772 5771 5771 5771 5770 5771 5771 5769 5766 5763 5761 5760 5758 5757 5756
5822 5815 5808 5805 5803 5800 5798 5796 5794 5793 5791 5789 5788 5786 5785 5784 5782 5780 5779 5778 5777 5776 5775 5774 5773 5773 5772 5772 5772 5772 5772 5771 5773 5773 5771 5769 5766 5764 5762 5760 5758 5757 5756
5823 5817 5811 5806 5803 5800 5798 5796 5794 5792 5790 5789 5787 5785 5784 5783 5782 5780 5779 5778 5777 5775 5775 5774 5774 5773 5772 5772 5772 5772 5773 5772 5772 5773 5772 5769 5766 5764 5762 5760 5759 5758 5756
5822 5818 5814 5810 5805 5801 5798 5795 5794 5791 5790 5788 5787 5785 5784 5783 5782 5780 5779 5777 5777 5776 5775 5775 5774 5773 5772 5772 5773 5773 5773 5773 5774 5774 5773 5770 5767 5765 5763 5761 5760 5758 5757
5819 5817 5815 5812 5808 5805 5801 5797 5794 5792 5790 5788 5786 5785 5784 5784 5783 5781 5780 5779 5778 5777 5776 5775 5774 5773 5773 5773 5774 5774 5774 5774 5775 5775 5774 5771 5768 5766 5764 5762 5760 5759 5757
5814 5815 5815 5812 5809 5806 5804 5798 5796 5794 5791 5789 5787 5786 5785 5785 5784 5783 5781 5780 5779 5778 5776 5776 5775 5774 5774 5775 5775 5775 5775 5776 5776 5776 5774 5771 5769 5767 5765 5763 5761 5759 5758
5816 5814 5814 5812 5809 5806 5803 5800 5797 5795 5792 5790 5788 5787 5786 5786 5785 5784 5782 5781 5779 5778 5777 5777 5776 5776 5777 5778 5778 5778 5778 5778 5779 5777 5773 5771 5769 5768 5766 5764 5762 5760 5759
5815 5813 5813 5811 5808 5805 5803 5801 5798 5796 5793 5791 5789 5787 5786 5785 5785 5784 5783 5782 5781 5780 5779 5779 5778 5779 5779 5780 5780 5780 5780 5780 5779 5777 5773 5771 5770 5768 5767 5765 5762 5761 5760
5813 5813 5812 5810 5806 5803 5801 5800 5799 5797 5795 5792 5789 5787 5786 5785 5784 5784 5783 5782 5782 5782 5780 5779 5779 5780 5780 5780 5781 5782 5781 5781 5779 5777 5774 5772 5770 5769 5768 5766 5764 5762 5761
5815 5813 5812 5809 5805 5802 5800 5798 5798 5797 5794 5792 5790 5787 5786 5785 5784 5783 5782 5781 5781 5781 5780 5779 5779 5779 5779 5779 5780 5781 5781 5781 5780 5778 5776 5774 5771 5770 5768 5767 5765 5763 5762
5816 5814 5811 5809 5806 5802 5800 5798 5798 5796 5794 5792 5790 5788 5786 5785 5783 5782 5781 5781 5781 5780 5780 5779 5778 5778 5778 5778 5778 5780 5781 5781 5780 5779 5778 5775 5773 5771 5770 5768 5766 5764 5762
5817 5813 5811 5811 5806 5802 5800 5798 5797 5796 5794 5792 5790 5788 5785 5784 5783 5781 5781 5781 5780 5780 5779 5778 5777 5775 5775 5775 5775 5777 5780 5780 5780 5780 5779 5777 5775 5773 5771 5769 5767 5765 5763
5818 5814 5810 5808 5805 5802 5800 5797 5796 5795 5794 5792 5790 5787 5785 5783 5782 5781 5781 5780 5779 5779 5778 5777 5776 5774 5772 5772 5773 5776 5778 5779 5780 5780 5779 5778 5776 5774 5772 5769 5767 5765 5764
5819 5814 5810 5807 5805 5802 5799 5797 5795 5794 5793 5792 5790 5787 5785 5783 5782 5781 5780 5779 5779 5778 5776 5774 5773 5773 5772 5771 5772 5774 5776 5777 5779 5779 5778 5777 5775 5774 5772 5770 5767 5765 5764
5818 5813 5809 5806 5803 5801 5797 5793 5791 5790 5791 5790 5790 5787 5785 5783 5782 5780 5779 5778 5778 5776 5774 5773 5772 5770 5769 5771 5767 5766 5771 5775 5776 5777 5777 5775 5774 5773 5772 5770 5768 5766 5765
5818 5814 5809 5806 5803 5801 5798 5796 5794 5792 5791 5791 5790 5787 5785 5783 5782 5781 5778 5777 5776 5774 5772 5771 5770 5767 5767 5769 5764 5759 5756 5761 5768 5774 5774 5773 5773 5772 5770 5769 5768 5766 5765
5820 5815 5811 5807 5804 5801 5800 5797 5795 5793 5790 5788 5787 5786 5785 5784 5782 5780 5779 5776 5775 5774 5771 5769 5768 5765 5762 5765 5766 5759 5751 5748 5756 5765 5769 5771 5770 5768 5768 5768 5767 5765 5764
5823 5819 5813 5808 5804 5802 5800 5796 5792 5787 5784 5785 5786 5785 5784 5783 5781 5780 5778 5776 5774 5773 5770 5769 5768 5766 5763 5760 5762 5763 5761 5759 5752 5752 5760 5765 5766 5765 5765 5766 5765 5764 5763
5826 5821 5815 5809 5805 5802 5799 5796 5792 5789 5787 5787 5787 5784 5783 5782 5780 5779 5777 5775 5772 5771 5769 5768 5766 5764 5763 5760 5758 5758 5758 5758 5757 5751 5747 5753 5758 5761 5763 5763 5763 5762 5761
5827 5822 5815 5809 5804 5801 5798 5795 5791 5788 5786 5784 5783 5781 5781 5780 5779 5778 5776 5773 5771 5769 5768 5766 5765 5763 5761 5760 5758 5757 5755 5753 5752 5751 5747 5748 5750 5755 5760 5761 5761 5760 5760